This is the latest recevied weather packets stored in our database for station/object KI7JYE. If no packets are shown the sender has not sent any weather packets the latest 10 day(s).
| Time | Temp. | Humidity | Pressure | Rain* | Wind** | Luminosity | Snow |
|---|---|---|---|---|---|---|---|
| 1777993760 | 12.22° C | 89% | 1015.1 hPa | 0 mm | - | 104 W/m² | - |
| 1777993456 | 12.22° C | 90% | 1015.1 hPa | 0 mm | - | 94 W/m² | - |
| 1777993151 | 12.22° C | 90% | 1014.9 hPa | 0 mm | - | 76 W/m² | - |
| 1777992849 | 12.22° C | 90% | 1015 hPa | 0 mm | - | 65 W/m² | - |
| 1777992547 | 12.22° C | 90% | 1014.9 hPa | 0 mm | - | 56 W/m² | - |
| 1777992245 | 11.67° C | 90% | 1014.8 hPa | 0 mm | - | 62 W/m² | - |
| 1777991942 | 11.67° C | 91% | 1014.6 hPa | 0 mm | - | 59 W/m² | - |
| 1777991639 | 11.67° C | 90% | 1014.9 hPa | 0 mm | - | 49 W/m² | - |
| 1777991336 | 11.67° C | 90% | 1014.6 hPa | 0 mm | - | 52 W/m² | - |
| 1777991033 | 11.67° C | 91% | 1014.7 hPa | 0 mm | - | 46 W/m² | - |
| 1777990730 | 11.67° C | 91% | 1014.7 hPa | 0 mm | - | 43 W/m² | - |
| 1777990428 | 11.67° C | 91% | 1014.3 hPa | 0 mm | - | 38 W/m² | - |
| 1777989821 | 11.67° C | 91% | 1014.4 hPa | 0 mm | - | 35 W/m² | - |
| 1777989518 | 11.67° C | 91% | 1014.3 hPa | 0 mm | - | 29 W/m² | - |
| 1777989214 | 11.67° C | 91% | 1014.3 hPa | 0 mm | - | 23 W/m² | - |
| 1777988910 | 11.67° C | 91% | 1014.1 hPa | 0 mm | - | 23 W/m² | - |
| 1777988607 | 11.67° C | 91% | 1014.4 hPa | 0 mm | - | 19 W/m² | - |
| 1777988304 | 11.11° C | 91% | 1014.3 hPa | 0 mm | - | 16 W/m² | - |
| 1777988001 | 11.11° C | 91% | 1014 hPa | 0 mm | - | 12 W/m² | - |
| 1777987696 | 11.11° C | 91% | 1014.4 hPa | 0 mm | - | 10 W/m² | - |
| 1777987394 | 11.11° C | 92% | 1014.2 hPa | 0 mm | - | 8 W/m² | - |
| 1777987091 | 11.11° C | 92% | 1014.1 hPa | 0 mm | - | 6 W/m² | - |
| 1777986788 | 11.11° C | 92% | 1014.3 hPa | 0 mm | - | 4 W/m² | - |
| 1777986486 | 11.11° C | 92% | 1014.1 hPa | 0 mm | - | 3 W/m² | - |
| 1777986184 | 11.11° C | 92% | 1014.1 hPa | 0 mm | - | 1 W/m² | - |
* Rain latest hour (hover to see other rain measurements)
** Current wind speed in m/s (hover to see current wind gust speed)